CDT,Max TemperatureF,Mean TemperatureF,Min TemperatureF,Max Dew PointF,MeanDew PointF,Min DewpointF,Max Humidity, Mean Humidity, Min Humidity, Max Sea Level PressureIn, Mean Sea Level PressureIn, Min Sea Level PressureIn, Max VisibilityMiles, Mean VisibilityMiles, Min VisibilityMiles, Max Wind SpeedMPH, Mean Wind SpeedMPH, Max Gust SpeedMPH,PrecipitationIn, CloudCover, Events, WindDirDegrees
2013-3-1,29,27,24,29,24,19,100,88,78,30.26,30.18,30.09,10,8,2,15,10,17,0.01,8,Snow,10
2013-3-2,26,16,5,21,15,3,93,81,67,30.28,30.25,30.22,10,10,10,14,10,,0.00,2,,318
2013-3-3,29,16,3,22,13,1,95,77,53,30.22,30.14,30.05,10,10,5,10,5,,0.00,5,,113
2013-3-4,36,32,28,30,28,22,94,84,75,30.07,29.94,29.85,10,9,2,22,15,31,0.00,4,Rain-Snow,105
2013-3-5,32,30,29,32,28,24,100,90,77,30.15,29.96,29.87,10,6,1,30,13,34,0.10,8,Rain-Snow,319
2013-3-6,28,25,22,26,22,19,89,83,79,30.38,30.33,30.16,10,10,10,21,14,24,0.00,7,,325
2013-3-7,32,28,23,27,23,20,96,85,75,30.44,30.39,30.35,10,10,10,10,4,,0.00,5,,128
2013-3-8,40,32,23,34,29,22,100,86,73,30.43,30.35,30.22,10,9,5,16,10,20,0.00,1,,125
2013-3-9,45,40,34,42,36,32,100,91,76,30.20,29.97,29.77,10,8,2,18,12,26,0.72,7,Rain,141
2013-3-10,49,43,37,49,43,36,100,99,91,29.79,29.70,29.58,10,3,0,21,6,25,0.65,8,Fog-Rain-Thunderstorm,185
2013-3-11,38,36,30,41,32,26,100,96,82,29.95,29.76,29.65,10,7,1,28,17,33,0.00,8,Rain,264
2013-3-12,37,30,25,32,25,20,92,81,72,30.19,30.05,29.95,10,10,2,30,15,34,0.00,4,Snow,277
2013-3-13,35,28,22,26,20,17,92,72,50,30.41,30.34,30.19,10,10,10,23,17,30,0.00,1,Snow,306
2013-3-14,49,37,25,36,29,23,95,76,52,30.38,30.22,30.09,10,10,10,20,5,26,0.00,3,,163
2013-3-15,53,41,29,44,37,29,100,86,68,30.08,29.88,29.68,10,8,4,12,4,,0.00,1,,97
2013-3-16,41,37,32,40,34,30,100,91,75,30.13,29.95,29.67,10,6,0,18,10,24,0.00,7,Fog,353
2013-3-17,38,34,29,31,28,24,93,80,68,30.17,30.07,29.88,10,10,7,18,12,24,0.00,7,Snow,71
2013-3-18,43,34,26,38,30,18,100,87,63,29.98,29.81,29.73,10,7,1,29,13,36,0.00,7,Rain-Snow,315
2013-3-19,41,30,20,23,15,12,88,58,32,30.19,30.12,29.96,10,10,10,29,16,38,0.00,0,,290
2013-3-20,29,23,16,22,11,4,87,59,40,30.27,30.20,30.13,10,10,10,28,17,38,0.00,2,,311
2013-3-21,34,22,11,19,11,5,85,61,37,30.15,30.08,30.02,10,10,10,12,6,,0.00,0,,6
2013-3-22,41,30,18,26,18,13,89,63,33,30.09,30.05,30.01,10,10,10,13,3,16,0.00,3,,88
2013-3-23,48,39,30,32,25,21,99,61,37,30.10,30.04,29.95,10,10,2,20,8,26,0.00,4,Snow,46
2013-3-24,32,30,29,32,30,28,100,97,93,29.99,29.82,29.70,7,2,0,23,16,30,0.07,8,Snow,12
2013-3-25,32,30,28,29,27,25,99,86,74,30.19,30.00,29.84,10,8,1,21,15,24,0.00,6,Snow,318
2013-3-26,37,30,23,27,25,21,90,77,61,30.34,30.28,30.19,10,10,10,16,11,,0.00,4,,291
2013-3-27,42,32,23,28,24,22,93,71,46,30.41,30.36,30.33,10,10,10,7,4,,0.00,1,,286
2013-3-28,48,36,24,32,29,23,100,74,51,30.39,30.34,30.28,10,10,7,12,3,18,0.00,1,,137
2013-3-29,58,44,32,36,33,30,93,68,37,30.31,30.27,30.22,10,10,3,8,4,,0.00,2,,83
2013-3-30,55,44,32,44,39,31,100,79,55,30.22,30.06,29.91,10,10,7,26,7,32,0.00,3,Rain,179
2013-3-31,61,49,37,46,39,27,100,72,34,30.01,29.90,29.85,10,8,2,28,11,32,0.00,5,,290